{"data":{"norad_id":58454,"intl_designator":"2023-183T","name":"STARLINK-30966","alt_names":[],"object_type":"PAYLOAD","status":"ACTIVE","operator":null,"country":"US","launch_date":"2023-11-28","launch_site_code":"AFETR","launch_vehicle":null,"mission":null,"orbit_class":"UNKNOWN","rcs_meters":null,"size_class":null,"mass_kg":null,"dimensions":null,"purposes":["comms"],"wikipedia_slug":null,"has_3d_model":false,"image_url":null,"decayed_at":null,"tle_current":{"epoch":"2026-05-24T18:53:40.635168Z","epoch_age_seconds":86792,"freshness":"FRESH","line1":"1 58454U 23183T   26144.78727587  .00001743  00000+0  72826-4 0  9994","line2":"2 58454  43.0039 331.7588 0001477 269.6132  90.4550 15.27586584138376","mean_motion":15.27586584,"eccentricity":0.0001477,"inclination_deg":43.0039,"raan_deg":331.7588,"arg_perigee_deg":269.6132,"mean_anomaly_deg":90.455,"bstar":7.2826e-5,"rev_number":13837,"period_min":94.266342417681,"perigee_km":482.01598697137,"apogee_km":484.04277552039,"semimajor_km":6861.1663812459,"source":"CELESTRAK","updated_at":"2026-05-25T13:38:18.625496Z"}}}